Location: Unspecified
(51.5147°N, 7.4673°E)
Time: 21:37:54
(UTC+01:00)

Tiros 1 - Visible Passes

Search period start: 18 February 2026 00:00
Search period end: 28 February 2026 00:00
Orbit: 618 x 649 km, 48.4° (Epoch: 18 February)

Date Brightness Start Highest point End Pass type
(mag) Time Alt. Az. Time Alt. Az. Time Alt. Az.
23 Feb 10.0 06:10:37 10° SSE 06:12:04 11° SE 06:13:31 10° ESE visible
24 Feb 9.5 06:29:53 10° SSW 06:33:13 20° SE 06:36:33 10° E visible
25 Feb 8.8 06:50:27 10° SW 06:54:30 30° SSE 06:58:32 10° E visible
26 Feb 9.5 05:31:46 10° S 05:34:46 17° SE 05:37:46 10° ESE visible
27 Feb 8.8 05:52:05 10° SSW 05:56:01 27° SSE 05:59:54 10° E visible
